www.pogodaiklimat.ru

Погода и климат >> Архив погоды >> Корея >> Чунчон


ПОГОДА в Чунчоне

  • Прогноз погоды в Чунчоне
  • Монитор погоды в Чунчоне

АРХИВ ПОГОДЫ в Чунчоне

Время (UTC), дата Ветер
(напр.,м/с)
 
Видим.   Явления Облачность Т
(С)
Тd
(С)
f
(%)
Тe
(С)
Тes
(С)
Комфортность P
(гПа)
Po
(гПа)
Тmin
(С)
Tmax
(С)
R
(мм)
R24
(мм)
S
(см)
12 10.07 СЗ 5 2400 м дождь 10/8 200 м
[Frnb As op]
+18.8 +18.3 97 +20 +20 1008.8 1000.1 +20.2 16
15 10.07 СВ 2 1900 м дождь 10/9 100 м
[Frnb As op]
+20.2 +19.7 97 +25 +25 комфорт 1007.3 998.6
18 10.07 СВ 2 1800 м дождь 10// 100 м
[Frnb As op]
+19.9 +19.4 97 +24 +24 комфорт 1006.0 997.3 68
21 10.07 СВ 2 2600 м слаб. дождь 10/10 100 м
[Frnb Ns]
+19.8 +19.3 97 +23 +23 комфорт 1004.9 996.3
00 11.07 С 6 2000 м дождь 10/8 100 м
[Frnb As op]
+19.8 +19.3 97 +23 +23 комфорт 1004.7 996.1 +19.7 105
03 11.07 СЗ 4 2400 м дождь 10// 200 м
[Frnb As op]
+19.9 +19.4 97 +23 +26 комфорт 1004.1 995.4
06 11.07 СЗ 6 3700 м слаб. дождь 8/6 300 м
[Frnb As op]
+19.4 +18.4 94 +21 +23 комфорт 1003.4 994.8 32
09 11.07 СЗ 5 8000 м слаб. дождь 10/10 200 м
[Frnb Ns]
+18.8 +17.8 94 +20 +20 1004.1 995.4
12 11.07 СЗ 7 3000 м слаб. дождь 10/10 200 м
[Frnb]
+18.0 +17.3 96 +17 +17 1005.6 996.9 +20.3 34
15 11.07 СЗ 1 6000 м слаб. дождь 10// 200 м
[Frnb]
+17.8 +17.1 96 +19 +19 1005.7 997.0
18 11.07 З 1 18 км 10/6 1000 м
[Sc As op]
+18.0 +17.3 96 +19 +19 1005.3 996.6
21 11.07 штиль 0 20 км 6/5 1500 м
[Sc Ac trans]
+18.1 +17.2 94 +18 +18 1005.8 997.1
00 12.07 В 2 12 км 8/8 600 м
[Sc]
+21.6 +18.3 82 +26 +28 душно 1006.0 997.4 +17.7 0.5
03 12.07 В 5 13 км н/о +21.7 +18.4 82 +26 +33 душно 1004.6 996.0
06 12.07 В 2 12 км 3/3 1000 м
[Sc]
+23.7 +18.7 74 +28 +38 душно 1003.6 995.1
09 12.07 В 2 13 км 1/1 1000 м
[Sc]
+25.2 +19.3 70 +30 +33 душно 1002.5 994.0
12 12.07 Ю 2 20 км 5/3 1500 м
[Sc Ci fib]
+21.7 +18.2 80 +26 +26 душно 1003.2 994.6 +26.0 0.0
15 12.07 Ю 1 15 км 8/0
[Ci sp]
+21.2 +17.2 78 +25 +25 комфорт 1002.8 994.2
18 12.07 З 1 15 км 6/0
[Ci fib]
+21.9 +16.3 71 +26 +26 душно 1002.4 993.8
21 12.07 Ю 1 20 км 8/3 1500 м
[Sc Ci sp]
+20.3 +16.7 80 +24 +25 комфорт 1002.0 993.3
00 13.07 штиль 0 15 км 8/0
[Ci fib]
+25.6 +17.5 61 +30 +41 душно 1001.6 993.1 +19.4 0.0
03 13.07 В 2 14 км 6/3 1500 м
[Sc Ci fib]
+27.7 +17.5 54 +32 +45 очень
душно
1000.6 992.2
06 13.07 В 2 14 км 4/0
[Ac trans]
+26.1 +16.0 54 +29 +40 жарко 999.8 991.4
09 13.07 В 1 12 км 5/0
[Ac trans]
+24.3 +17.0 64 +28 +30 душно 999.3 990.9
12 13.07 З 1 13 км 6/1 1000 м
[Sc Ac trans Ci fib]
+20.9 +18.4 86 +26 +26 душно 1000.5 991.9 +28.0
15 13.07 СЗ 2 13 км 5/0
[Ac trans Ci fib]
+20.9 +18.2 85 +26 +26 душно 1001.5 992.9
18 13.07 З 1 15 км 5/0
[Ac trans Ci fib]
+19.7 +17.6 88 +23 +23 комфорт 1001.5 992.9
21 13.07 15 км н/о +19.5 +17.4 88 +23 +23 комфорт 1002.1 993.5
00 14.07 СЗ 2 6000 м слаб. дождь 10/10 300 м
[Frnb]
+20.7 +19.6 93 +26 +26 душно 1003.1 994.5 +18.9 0.1
03 14.07 СЗ 1 12 км слаб. дождь 10// 600 м
[Frnb]
+20.9 +19.7 93 +27 +39 душно 1004.1 995.5
06 14.07 С 2 19 км 9/9 600 м
[Sc]
+22.3 +18.4 79 +28 +35 душно 1003.5 994.9 0.9
09 14.07 СЗ 1 16 км 9// 1000 м
[Sc]
+22.5 +18.0 76 +28 +29 душно 1003.6 995.0
12 14.07 12 км 6/6 1000 м
[Sc]
+20.1 +18.9 93 +23 +23 комфорт 1005.6 996.9 +22.6 0.9
15 14.07 штиль 0 15 км 8/5 1000 м
[Sc Ac trans]
+19.5 +17.9 90 +22 +22 комфорт 1006.2 997.6
18 14.07 штиль 0 16 км 8/3 600 м
[Sc Ac trans]
+20.3 +18.0 87 +23 +23 комфорт 1005.9 997.2
21 14.07 14 км н/о +20.0 +18.8 93 +23 +23 комфорт 1007.0 998.3
00 15.07 штиль 0 15 км 10/3 300 м
[Sc As op]
+22.0 +18.7 82 +27 +29 душно 1007.9 999.3 +19.4 0.0
03 15.07 СВ 1 12 км 10/5 1500 м
[Sc As op]
+22.7 +20.2 86 +29 +32 очень
душно
1008.3 999.7
06 15.07 В 2 15 км 10/5 300 м
[Sc As op]
+23.1 +19.6 81 +30 +31 очень
душно
1007.9 999.3
09 15.07 В 2 16 км 10/5 600 м
[Sc As op]
+22.9 +19.6 82 +29 +30 очень
душно
1007.7 999.1
12 15.07 З 1 6000 м ливневой дождь 10/8 1000 м
[Sc As op]
+20.2 +19.5 96 +25 +25 комфорт 1009.8 1001.1 +25.0 11
15 15.07 З 1 4100 м в посл. час дождь 10/9 600 м
[Sc As op]
+20.2 +19.5 96 +25 +25 комфорт 1010.4 1001.7
18 15.07 С 1 4000 м в посл. час дождь 10// 300 м
[St]
+20.3 +19.6 96 +25 +25 комфорт 1010.2 1001.5 0.4
21 15.07 СЗ 1 3400 м в посл. час дождь 10// 600 м
[St]
+20.1 +19.4 96 +25 +25 комфорт 1011.1 1002.4
00 16.07 7000 м в посл. час дождь 10/10 300 м
[Frnb]
+21.2 +20.1 93 1012.0 1003.3 +19.9 0.4
03 16.07 В 2 16 км в посл. час дождь 10// 300 м
[Frnb]
+22.1 +20.3 90 +28 +38 душно 1012.3 1003.6
06 16.07 В 4 17 км 10/10 300 м
[Frnb]
+22.2 +20.1 88 +28 +33 душно 1012.0 1003.4 0.1
09 16.07 В 2 13 км 10/5 300 м
[Sc As op]
+22.3 +20.0 87 +28 +29 душно 1011.6 1003.0
12 16.07 штиль 0 13 км 9/9 600 м
[Sc]
+21.1 +19.9 93 +26 +26 душно 1012.3 1003.6 +22.8 0.1
15 16.07 ЮВ 2 13 км 9// 300 м
[St]
+21.2 +20.0 93 +26 +26 душно 1013.1 1004.4
18 16.07 штиль 0 17 км 9/9 300 м
[St]
+20.7 +19.3 92 +25 +25 комфорт 1012.3 1003.6
21 16.07 штиль 0 8000 м дымка 9/9 300 м
[St Ci fib]
+20.3 +19.6 96 +24 +24 комфорт 1012.9 1004.2
00 17.07 ЮВ 2 13 км 8/8 300 м
[Sc]
+23.0 +19.3 80 +29 +31 очень
душно
1012.1 1003.5 +19.9 0.0
03 17.07 В 1 15 км 8/4 1000 м
[Sc Ac trans]
+25.5 +20.7 75 +32 +40 очень
душно
1011.5 1002.9
06 17.07 В 2 18 км 10/3 1500 м
[Sc As trans]
+24.3 +20.6 80 +30 +34 очень
душно
1010.3 1001.8
09 17.07 В 1 15 км в посл. час ливневой дождь 10/5 1000 м
[Cu Sc As trans]
+23.3 +20.6 85 +31 +31 очень
душно
1009.7 1001.1

 

Местоположение метеостанции Чунчон (Корея): широта 37.88 долгота 127.71 высота над уровнем моря 75 м.

В архиве по умолчанию представлена погода в Чунчоне за последнюю неделю. Архивные данные за месяц целиком и за предыдущие месяцы, начиная с января 2011 года, Вы можете получить, выбрав интересующий диапазон дат из раскрывающегося списка и нажав кнопку "Ввод!".


*Определитесь, кто Вы:
робот инопланетянин человек

Внимание! Время в таблицах - всемирное. Для получения местного времени необходимо прибавить поправку, которая равна 9 ч.

Смотрите также архив погоды в соседних городах и на ближайших метеорологических станциях:

Погода в Чхунчхоне (Корея) (3 км)
Погода в Букчунчеоне (Корея) (24 км)
Погода в Чхорвоне (Корея) (47 км)
Погода в Тондучхоне (Корея) (57 км)
Погода в Вонджу (Корея) (65 км)
Погода в Ичхоне (Корея) (71 км)
Погода в Пхенганге (КНДР) (71 км)
Погода в Сеуле (Корея) (74 км)
Погода в Мунсане (Корея) (83 км)
Погода в Сокчхо (Корея) (85 км)

Пояснения к столбцам:

Ветер - указаны скорость ветра в м/с - средняя за 10 мин, порывы в срок и между сроками (в фигурных скобках) и направление, откуда дует ветер: С - северный, СВ - северо-восточный, В - восточный, ЮВ - юго-восточный, Ю - южный, ЮЗ - юго-западный, З - западный, СЗ - северо-западный.
Видимость - горизонтальная дальность видимости в метрах или километрах. При видимости от 1 до 10 км при отсутствии осадков обычно наблюдается дымка, при ухудшении видимости до 1 км и менее - туман. В сухую погоду видимость может ухудшаться дымом, пылью или мглою.
Явления - указаны атмосферные явления, наблюдавшиеся в срок или в последний час перед сроком; фигурными скобками обозначены явления, наблюдавшиеся между сроками (за 1-3 часа до срока); квадратными скобками обозначены град или гололедные отложения с указанием их диаметра в мм.
Облачность - указаны через наклонную черту общая и нижняя облачность в баллах и высота нижней границы облаков в метрах; квадратными скобками обозначены формы облаков: Ci - перистые, Cs - перисто-слоистые, Cc - перисто-кучевые, Ac - высококучевые, As - высокослоистые, Sc - слоисто-кучевые, Ns - слоисто-дождевые, Cu - кучевые, Cb - кучево-дождевые. Подробнее классификацию облаков см. в Атласе облаков (PDF).
T - Температура воздуха - температура, измеренная на высоте 2 м над землей.
Td - Температура точки росы - температура, при понижении до которой содержащийся в воздухе водяной пар достигнет насыщения.
f - Относительная влажность воздуха - влажноcть воздуха, измеренная на высоте 2 м над землей.
Te - Эффективная температура - температура, которую ощущает одетый по сезону человек в тени. Характеристика душности погоды. При расчете учитывается влияние влажности воздуха и скорости ветра на теплоощущения человека.
Tes - Эффективная температура на солнце - температура, которую ощущает человек, с поправкой на солнечный нагрев. Характеристика знойности погоды. Зависит от высоты солнца над горизонтом, облачности и скорости ветра. Ночью, в пасмурную погоду, а также при ветре 12 м/с и более поправка равна нулю.
P - Атмосферное давление - приведенное к уровню моря атмосферное давление.
Po - Атмосферное давление - измеренное на уровне метеостанции атмосферное давление.
Tmin - Минимальная температура - минимум температуры воздуха на высоте 2 м над землей.
Tmax - Максимальная температура - максимум температуры воздуха на высоте 2 м над землей.
R - Количество осадков - Количество выпавших осадков за период времени, мм. При наведении курсора мыши на число - период времени, за который выпало указанное количество осадков.
R24 - Количество осадков - Количество выпавших осадков за 24 часа, мм.
S - Снежный покров - Высота снежного покрова, см. При наведении курсора мыши на число - состояние снежного покрова и степень покрытия местности в баллах.